MAX VALIER SAT (42778 NORAD) Tracking and Keplerian Element Data

This shows tracking and keplerian element data for the satellite.

Feedback or suggestion? Click here.




ElementValue
Catalog42778
NameMAX VALIER SAT
Epoch Orbit7807
Epoch Day323.19688797
Epoch Year2018
RAAN20.1991
Inclination97.3853
Eccentricity0.001114
Argument of Perigee242.8408
Mean Anonmoly117.1693
Mean Motion15.21616856
Decay Rate1.035E-05
L11 42778U 17036P 18323.19688797 .00001035 00000-0 48852-4 0 9997
L22 42778 97.3853 20.1991 0011140 242.8408 117.1693 15.21616856 78073

Live tracking and technical data element details for MAX VALIER SAT (NORAD 42778). MAX VALIER SAT can be tracked NOW for your location showing map with azimuth and elevation plus other details from your city location.

Track the satellite on the map from your city or location and see movement details for azimuth, elevation, latitude, longitude, range, height, and movement on the map or in text.







IsCatalogInMostPopularTable: catalog: 42778, numindb: 123
Update: records affected: 1



GetName: 42778 MAX VALIER SAT

Hit Count: updated at: Mon, 19 Nov 2018 14:28:12 GMT